| time (UTC) | temp C | wind direction | speed KPH | gust KPH | rain 1hr cm | rain 24hr cm | rain mn cm | humidity % | barometer mb |
| 20260508050043 | 6 | 253 | 1.6 | 4.8 | 0.00 | 0.08 | 0.00 | 67 | 1007.0 |
| 20260508045533 | 6 | 253 | 0.0 | 8.0 | 0.00 | 0.36 | 0.00 | 61 | 1007.1 |
| 20260508045032 | 7 | 0 | 3.2 | 8.0 | 0.00 | 0.36 | 0.00 | 61 | 1007.1 |
| 20260508044547 | 7 | 259 | 3.2 | 6.4 | 0.00 | 0.36 | 0.00 | 54 | 1007.1 |
| 20260508044032 | 7 | 203 | 1.6 | 6.4 | 0.00 | 0.36 | 0.00 | 55 | 1007.2 |
| 20260508043536 | 7 | 221 | 1.6 | 9.7 | 0.00 | 0.36 | 0.00 | 51 | 1007.1 |
| 20260508043042 | 7 | 213 | 3.2 | 11.3 | 0.00 | 0.36 | 0.00 | 51 | 1007.2 |
| 20260508042533 | 7 | 245 | 1.6 | 12.9 | 0.00 | 0.36 | 0.00 | 50 | 1007.2 |
| 20260508042032 | 7 | 296 | 4.8 | 12.9 | 0.00 | 0.36 | 0.00 | 50 | 1007.2 |
| 20260508041610 | 7 | 248 | 6.4 | 14.5 | 0.00 | 0.36 | 0.00 | 50 | 1007.2 |
| 20260508041032 | 7 | 296 | 8.0 | 14.5 | 0.00 | 0.36 | 0.00 | 50 | 1007.2 |
| 20260508040533 | 7 | 292 | 8.0 | 14.5 | 0.00 | 0.36 | 0.00 | 50 | 1007.3 |
| 20260508040104 | 7 | 314 | 4.8 | 16.1 | 0.00 | 0.36 | 0.00 | 50 | 1007.3 |
| 20260508035536 | 8 | 315 | 6.4 | 16.1 | 0.00 | 0.46 | 0.36 | 49 | 1007.4 |
| 20260508035034 | 8 | 318 | 1.6 | 11.3 | 0.00 | 0.46 | 0.36 | 48 | 1007.3 |
| 20260508034544 | 8 | 318 | 3.2 | 17.7 | 0.00 | 0.46 | 0.36 | 48 | 1007.3 |
| 20260508034104 | 8 | 296 | 3.2 | 17.7 | 0.00 | 0.46 | 0.36 | 48 | 1007.2 |
| 20260508033532 | 8 | 323 | 6.4 | 20.9 | 0.00 | 0.46 | 0.36 | 47 | 1007.3 |
| 20260508033045 | 8 | 320 | 9.7 | 20.9 | 0.00 | 0.46 | 0.36 | 47 | 1007.1 |
| 20260508032535 | 8 | 308 | 8.0 | 17.7 | 0.00 | 0.46 | 0.36 | 47 | 1007.2 |
| 20260508032031 | 8 | 304 | 8.0 | 19.3 | 0.00 | 0.46 | 0.36 | 47 | 1007.1 |
| 20260508031541 | 8 | 319 | 6.4 | 19.3 | 0.00 | 0.46 | 0.36 | 47 | 1007.0 |
| 20260508031032 | 8 | 311 | 4.8 | 30.6 | 0.00 | 0.46 | 0.36 | 46 | 1006.9 |
| 20260508030532 | 8 | 317 | 14.5 | 30.6 | 0.00 | 0.46 | 0.36 | 46 | 1006.9 |
| 20260508030045 | 8 | 285 | 8.0 | 19.3 | 0.00 | 0.46 | 0.36 | 46 | 1006.9 |
| 20260508025534 | 8 | 302 | 8.0 | 20.9 | 0.00 | 0.53 | 0.36 | 46 | 1006.9 |
| 20260508025033 | 8 | 317 | 9.7 | 20.9 | 0.00 | 0.53 | 0.36 | 46 | 1006.9 |
| 20260508024544 | 8 | 289 | 6.4 | 27.4 | 0.00 | 0.53 | 0.36 | 46 | 1006.8 |
| 20260508024035 | 8 | 329 | 12.9 | 27.4 | 0.00 | 0.53 | 0.36 | 46 | 1006.8 |
| 20260508023532 | 8 | 293 | 9.7 | 20.9 | 0.00 | 0.53 | 0.36 | 45 | 1006.8 |
| 20260508023045 | 8 | 323 | 9.7 | 17.7 | 0.00 | 0.53 | 0.36 | 45 | 1006.7 |
| 20260508022539 | 8 | 294 | 3.2 | 17.7 | 0.00 | 0.53 | 0.36 | 45 | 1006.7 |
| 20260508022032 | 8 | 301 | 6.4 | 20.9 | 0.00 | 0.53 | 0.36 | 45 | 1006.8 |
| 20260508021546 | 8 | 341 | 6.4 | 20.9 | 0.00 | 0.53 | 0.36 | 45 | 1006.8 |
| 20260508021033 | 8 | 292 | 8.0 | 17.7 | 0.00 | 0.53 | 0.36 | 45 | 1006.7 |
| 20260508020532 | 8 | 290 | 9.7 | 17.7 | 0.00 | 0.53 | 0.36 | 45 | 1006.8 |
| 20260508020049 | 8 | 325 | 4.8 | 19.3 | 0.00 | 0.53 | 0.36 | 45 | 1006.7 |
| 20260508015532 | 8 | 313 | 8.0 | 19.3 | 0.00 | 0.58 | 0.36 | 46 | 1006.6 |
| 20260508015032 | 8 | 306 | 6.4 | 17.7 | 0.00 | 0.58 | 0.36 | 47 | 1006.7 |
| 20260508014546 | 8 | 324 | 8.0 | 16.1 | 0.00 | 0.58 | 0.36 | 47 | 1006.7 |
| 20260508014035 | 8 | 310 | 4.8 | 19.3 | 0.00 | 0.58 | 0.36 | 48 | 1006.7 |
| 20260508013536 | 8 | 350 | 6.4 | 19.3 | 0.00 | 0.58 | 0.36 | 49 | 1006.7 |
| 20260508013044 | 8 | 332 | 6.4 | 19.3 | 0.00 | 0.58 | 0.36 | 49 | 1006.7 |
| 20260508012532 | 8 | 340 | 3.2 | 14.5 | 0.00 | 0.58 | 0.36 | 51 | 1006.6 |
| 20260508012037 | 8 | 329 | 6.4 | 14.5 | 0.00 | 0.58 | 0.36 | 50 | 1006.6 |
| 20260508011553 | 8 | 336 | 1.6 | 11.3 | 0.00 | 0.58 | 0.36 | 52 | 1006.6 |
| 20260508011032 | 8 | 336 | 1.6 | 11.3 | 0.00 | 0.58 | 0.36 | 54 | 1006.6 |
| 20260508010535 | 8 | 336 | 4.8 | 11.3 | 0.00 | 0.58 | 0.36 | 51 | 1006.6 |
| 20260508010046 | 9 | 323 | 1.6 | 8.0 | 0.00 | 0.58 | 0.36 | 52 | 1006.7 |
| 20260508005537 | 9 | 326 | 3.2 | 8.0 | 0.00 | 0.58 | 0.36 | 50 | 1006.5 |
| 20260508005037 | 9 | 304 | 1.6 | 6.4 | 0.00 | 0.58 | 0.36 | 49 | 1006.4 |
| 20260508004544 | 10 | 331 | 1.6 | 6.4 | 0.00 | 0.58 | 0.36 | 48 | 1006.4 |
| 20260508004033 | 10 | 331 | 3.2 | 8.0 | 0.00 | 0.58 | 0.36 | 47 | 1006.3 |
| 20260508003533 | 10 | 316 | 3.2 | 12.9 | 0.00 | 0.58 | 0.36 | 47 | 1006.3 |
| 20260508003053 | 10 | 325 | 3.2 | 12.9 | 0.00 | 0.58 | 0.36 | 46 | 1006.2 |
| 20260508002533 | 10 | 340 | 4.8 | 12.9 | 0.00 | 0.58 | 0.36 | 45 | 1006.1 |
| 20260508002034 | 11 | 332 | 3.2 | 14.5 | 0.00 | 0.58 | 0.36 | 44 | 1005.9 |
| 20260508001545 | 11 | 332 | 3.2 | 16.1 | 0.00 | 0.58 | 0.36 | 44 | 1005.9 |
| 20260508001034 | 11 | 347 | 8.0 | 16.1 | 0.00 | 0.58 | 0.36 | 43 | 1005.8 |
| 20260508000535 | 11 | 300 | 4.8 | 17.7 | 0.00 | 0.58 | 0.36 | 42 | 1005.7 |
| 20260508000051 | 11 | 340 | 6.4 | 17.7 | 0.00 | 0.58 | 0.36 | 42 | 1005.6 |
| 20260507235534 | 11 | 318 | 9.7 | 17.7 | 0.00 | 0.58 | 0.36 | 41 | 1005.5 |
| 20260507235034 | 11 | 333 | 8.0 | 17.7 | 0.00 | 0.58 | 0.36 | 42 | 1005.5 |
| 20260507234543 | 12 | 305 | 8.0 | 20.9 | 0.00 | 0.58 | 0.36 | 41 | 1005.4 |
| 20260507234035 | 12 | 327 | 6.4 | 20.9 | 0.00 | 0.58 | 0.36 | 40 | 1005.3 |
| 20260507233535 | 12 | 327 | 6.4 | 17.7 | 0.00 | 0.58 | 0.36 | 39 | 1005.2 |
| 20260507233057 | 12 | 324 | 9.7 | 17.7 | 0.00 | 0.58 | 0.36 | 38 | 1005.2 |
| 20260507232535 | 12 | 300 | 8.0 | 20.9 | 0.00 | 0.58 | 0.36 | 38 | 1005.1 |
| 20260507232033 | 13 | 302 | 9.7 | 24.1 | 0.00 | 0.58 | 0.36 | 37 | 1005.0 |
| 20260507231543 | 13 | 349 | 8.0 | 24.1 | 0.00 | 0.58 | 0.36 | 37 | 1004.9 |
| 20260507231034 | 13 | 344 | 14.5 | 25.7 | 0.00 | 0.58 | 0.36 | 37 | 1004.8 |
| 20260507230537 | 13 | 309 | 12.9 | 27.4 | 0.00 | 0.58 | 0.36 | 37 | 1004.8 |
| 20260507230045 | 13 | 298 | 16.1 | 27.4 | 0.00 | 0.58 | 0.36 | 37 | 1004.8 |
| 20260507225534 | 13 | 279 | 11.3 | 22.5 | 0.00 | 0.76 | 0.36 | 38 | 1004.7 |
| 20260507225034 | 13 | 309 | 9.7 | 22.5 | 0.00 | 0.76 | 0.36 | 38 | 1004.7 |
| 20260507224554 | 13 | 317 | 6.4 | 25.7 | 0.00 | 0.76 | 0.36 | 39 | 1004.5 |
| 20260507224036 | 13 | 329 | 8.0 | 25.7 | 0.00 | 0.76 | 0.36 | 38 | 1004.5 |
| 20260507223536 | 13 | 303 | 16.1 | 25.7 | 0.00 | 0.76 | 0.36 | 37 | 1004.3 |
| 20260507223044 | 13 | 317 | 14.5 | 24.1 | 0.00 | 0.76 | 0.36 | 37 | 1004.2 |
| 20260507222535 | 13 | 299 | 9.7 | 17.7 | 0.00 | 0.76 | 0.36 | 36 | 1004.1 |
| 20260507222034 | 13 | 261 | 9.7 | 22.5 | 0.00 | 0.76 | 0.36 | 36 | 1004.1 |
| 20260507221543 | 14 | 303 | 14.5 | 25.7 | 0.00 | 0.76 | 0.36 | 35 | 1004.1 |
| 20260507221035 | 14 | 316 | 11.3 | 30.6 | 0.00 | 0.76 | 0.36 | 35 | 1004.1 |
| 20260507220534 | 15 | 234 | 16.1 | 38.6 | 0.00 | 0.76 | 0.36 | 34 | 1004.1 |
| 20260507220045 | 15 | 283 | 17.7 | 38.6 | 0.00 | 0.76 | 0.36 | 36 | 1004.2 |
| 20260507215536 | 15 | 279 | 8.0 | 25.7 | 0.00 | 0.99 | 0.36 | 36 | 1004.0 |
| 20260507215034 | 14 | 273 | 11.3 | 27.4 | 0.00 | 0.99 | 0.36 | 36 | 1004.0 |
| 20260507214542 | 15 | 298 | 16.1 | 32.2 | 0.00 | 0.99 | 0.36 | 34 | 1004.1 |
| 20260507214033 | 15 | 277 | 17.7 | 32.2 | 0.00 | 0.99 | 0.36 | 35 | 1004.0 |
| 20260507213536 | 15 | 303 | 12.9 | 27.4 | 0.00 | 0.99 | 0.36 | 36 | 1003.9 |
| 20260507213053 | 15 | 299 | 16.1 | 29.0 | 0.00 | 0.99 | 0.36 | 34 | 1003.9 |
| 20260507212536 | 15 | 292 | 11.3 | 29.0 | 0.00 | 0.99 | 0.36 | 35 | 1003.8 |
| 20260507212036 | 15 | 288 | 14.5 | 29.0 | 0.00 | 0.99 | 0.36 | 35 | 1003.9 |
| 20260507211547 | 14 | 266 | 16.1 | 25.7 | 0.00 | 0.99 | 0.36 | 36 | 1003.9 |
| 20260507211035 | 14 | 281 | 9.7 | 33.8 | 0.00 | 0.99 | 0.36 | 36 | 1003.9 |
| 20260507210535 | 15 | 202 | 12.9 | 33.8 | 0.00 | 0.99 | 0.36 | 35 | 1003.7 |
| 20260507210054 | 15 | 271 | 19.3 | 32.2 | 0.00 | 0.99 | 0.36 | 33 | 1003.8 |
| 20260507205534 | 15 | 283 | 11.3 | 25.7 | 0.00 | 1.32 | 0.36 | 34 | 1003.7 |
| 20260507205034 | 15 | 237 | 12.9 | 24.1 | 0.00 | 1.32 | 0.36 | 34 | 1003.5 |
| 20260507204541 | 15 | 312 | 9.7 | 22.5 | 0.00 | 1.32 | 0.36 | 35 | 1003.4 |
| 20260507204035 | 15 | 272 | 11.3 | 24.1 | 0.00 | 1.32 | 0.36 | 36 | 1003.4 |
| 20260507203533 | 15 | 273 | 12.9 | 30.6 | 0.00 | 1.32 | 0.36 | 36 | 1003.3 |
| 20260507203050 | 15 | 292 | 12.9 | 32.2 | 0.00 | 1.32 | 0.36 | 36 | 1003.2 |
| 20260507202533 | 16 | 210 | 20.9 | 32.2 | 0.00 | 1.32 | 0.36 | 35 | 1003.2 |
| 20260507202034 | 16 | 311 | 17.7 | 29.0 | 0.00 | 1.32 | 0.36 | 34 | 1003.3 |
| 20260507201549 | 16 | 242 | 14.5 | 22.5 | 0.00 | 1.32 | 0.36 | 35 | 1003.2 |
| 20260507201035 | 16 | 311 | 9.7 | 29.0 | 0.00 | 1.32 | 0.36 | 37 | 1003.2 |
| 20260507200533 | 16 | 321 | 12.9 | 29.0 | 0.00 | 1.32 | 0.36 | 37 | 1003.0 |
| 20260507200050 | 16 | 265 | 16.1 | 29.0 | 0.00 | 1.32 | 0.36 | 36 | 1003.1 |
| 20260507195534 | 16 | 223 | 9.7 | 27.4 | 0.00 | 1.65 | 0.36 | 36 | 1003.1 |
| 20260507195037 | 16 | 252 | 16.1 | 27.4 | 0.00 | 1.65 | 0.36 | 36 | 1003.3 |
| 20260507194611 | 16 | 298 | 11.3 | 29.0 | 0.00 | 1.65 | 0.36 | 37 | 1003.2 |
| 20260507194034 | 16 | 321 | 12.9 | 29.0 | 0.00 | 1.65 | 0.36 | 40 | 1003.3 |
| 20260507193534 | 16 | 237 | 17.7 | 27.4 | 0.00 | 1.65 | 0.36 | 40 | 1003.4 |
| 20260507193056 | 16 | 244 | 14.5 | 29.0 | 0.00 | 1.65 | 0.36 | 42 | 1003.3 |
| 20260507192537 | 16 | 259 | 16.1 | 29.0 | 0.00 | 1.65 | 0.36 | 43 | 1003.3 |
| 20260507192034 | 16 | 244 | 12.9 | 22.5 | 0.00 | 1.65 | 0.36 | 45 | 1003.5 |
| 20260507191552 | 15 | 241 | 12.9 | 24.1 | 0.00 | 1.65 | 0.36 | 47 | 1003.5 |
| 20260507191033 | 15 | 257 | 11.3 | 24.1 | 0.00 | 1.65 | 0.36 | 48 | 1003.5 |
| 20260507190534 | 15 | 256 | 11.3 | 19.3 | 0.00 | 1.65 | 0.36 | 50 | 1003.4 |
| 20260507190052 | 15 | 269 | 9.7 | 27.4 | 0.00 | 1.65 | 0.36 | 51 | 1003.3 |
| 20260507185534 | 15 | 296 | 14.5 | 27.4 | 0.00 | 1.75 | 0.36 | 49 | 1003.4 |
| 20260507185034 | 15 | 275 | 14.5 | 24.1 | 0.00 | 1.75 | 0.36 | 50 | 1003.4 |
| 20260507184551 | 15 | 205 | 9.7 | 20.9 | 0.00 | 1.75 | 0.36 | 48 | 1003.3 |
| 20260507184035 | 15 | 246 | 12.9 | 29.0 | 0.00 | 1.75 | 0.36 | 49 | 1003.4 |
| 20260507183534 | 15 | 277 | 12.9 | 29.0 | 0.00 | 1.75 | 0.36 | 48 | 1003.4 |
| 20260507183050 | 15 | 235 | 16.1 | 29.0 | 0.00 | 1.75 | 0.36 | 47 | 1003.4 |
| 20260507182533 | 16 | 279 | 14.5 | 29.0 | 0.00 | 1.75 | 0.36 | 48 | 1003.4 |
| 20260507182033 | 16 | 302 | 11.3 | 30.6 | 0.00 | 1.75 | 0.36 | 48 | 1003.4 |
| 20260507181552 | 16 | 234 | 12.9 | 30.6 | 0.00 | 1.75 | 0.36 | 47 | 1003.6 |
| 20260507181038 | 16 | 279 | 16.1 | 30.6 | 0.00 | 1.75 | 0.36 | 46 | 1003.5 |
| 20260507180537 | 16 | 258 | 9.7 | 22.5 | 0.00 | 1.75 | 0.36 | 49 | 1003.6 |
| 20260507180050 | 16 | 297 | 12.9 | 29.0 | 0.00 | 1.75 | 0.36 | 46 | 1003.6 |
| 20260507175536 | 16 | 289 | 9.7 | 29.0 | 0.00 | 1.75 | 0.36 | 48 | 1003.5 |
| 20260507175036 | 16 | 319 | 11.3 | 30.6 | 0.00 | 1.75 | 0.36 | 47 | 1003.4 |
| 20260507174554 | 16 | 273 | 16.1 | 30.6 | 0.00 | 1.75 | 0.36 | 46 | 1003.7 |
| 20260507174036 | 15 | 287 | 6.4 | 24.1 | 0.00 | 1.75 | 0.36 | 51 | 1003.7 |
| 20260507173537 | 15 | 221 | 11.3 | 24.1 | 0.00 | 1.75 | 0.36 | 50 | 1003.7 |
| 20260507173108 | 15 | 200 | 9.7 | 22.5 | 0.00 | 1.75 | 0.36 | 50 | 1003.8 |
| 20260507172537 | 15 | 205 | 9.7 | 22.5 | 0.00 | 1.75 | 0.36 | 50 | 1003.7 |
| 20260507172037 | 15 | 254 | 11.3 | 22.5 | 0.00 | 1.75 | 0.36 | 51 | 1003.9 |
| 20260507171554 | 15 | 163 | 4.8 | 24.1 | 0.00 | 1.75 | 0.36 | 53 | 1003.9 |
| 20260507171037 | 15 | 227 | 12.9 | 24.1 | 0.00 | 1.75 | 0.36 | 51 | 1004.1 |
| 20260507170537 | 15 | 284 | 6.4 | 19.3 | 0.00 | 1.75 | 0.36 | 53 | 1004.1 |
| 20260507170058 | 15 | 286 | 11.3 | 17.7 | 0.00 | 1.75 | 0.36 | 53 | 1004.0 |
| 20260507165536 | 15 | 260 | 8.0 | 19.3 | 0.00 | 1.75 | 0.36 | 50 | 1004.1 |
| 20260507165036 | 15 | 245 | 8.0 | 19.3 | 0.00 | 1.75 | 0.36 | 49 | 1004.1 |
| 20260507164550 | 15 | 277 | 11.3 | 19.3 | 0.00 | 1.75 | 0.36 | 50 | 1004.2 |
| 20260507164037 | 15 | 240 | 6.4 | 16.1 | 0.00 | 1.75 | 0.36 | 51 | 1004.3 |
| 20260507163537 | 15 | 284 | 8.0 | 16.1 | 0.00 | 1.75 | 0.36 | 51 | 1004.3 |
| 20260507163047 | 15 | 236 | 8.0 | 16.1 | 0.00 | 1.75 | 0.36 | 51 | 1004.6 |
| 20260507162536 | 15 | 261 | 9.7 | 16.1 | 0.00 | 1.75 | 0.36 | 50 | 1004.5 |
| 20260507162039 | 14 | 261 | 8.0 | 16.1 | 0.00 | 1.75 | 0.36 | 53 | 1004.6 |
| 20260507161558 | 15 | 284 | 4.8 | 16.1 | 0.00 | 1.75 | 0.36 | 52 | 1004.6 |
| 20260507161036 | 14 | 263 | 6.4 | 12.9 | 0.00 | 1.75 | 0.36 | 56 | 1004.6 |
| 20260507160536 | 14 | 253 | 6.4 | 12.9 | 0.00 | 1.75 | 0.36 | 55 | 1004.8 |
| 20260507160049 | 14 | 176 | 8.0 | 12.9 | 0.00 | 1.75 | 0.36 | 54 | 1004.9 |
| 20260507155536 | 14 | 0 | 4.8 | 16.1 | 0.00 | 1.75 | 0.36 | 54 | 1005.0 |
| 20260507155036 | 14 | 219 | 9.7 | 16.1 | 0.00 | 1.75 | 0.36 | 54 | 1005.1 |
| 20260507154545 | 14 | 262 | 4.8 | 19.3 | 0.00 | 1.75 | 0.36 | 58 | 1005.0 |
| 20260507154037 | 14 | 194 | 9.7 | 20.9 | 0.00 | 1.75 | 0.36 | 56 | 1005.1 |
| 20260507153536 | 15 | 119 | 11.3 | 24.1 | 0.00 | 1.75 | 0.36 | 54 | 1005.1 |
| 20260507153042 | 15 | 160 | 9.7 | 24.1 | 0.00 | 1.75 | 0.36 | 54 | 1005.1 |
| 20260507152539 | 14 | 262 | 12.9 | 22.5 | 0.00 | 1.75 | 0.36 | 56 | 1005.1 |
| 20260507152036 | 14 | 200 | 8.0 | 19.3 | 0.00 | 1.75 | 0.36 | 55 | 1005.2 |
| 20260507151546 | 14 | 271 | 8.0 | 19.3 | 0.00 | 1.75 | 0.36 | 57 | 1005.2 |
| 20260507151036 | 13 | 190 | 8.0 | 17.7 | 0.00 | 1.75 | 0.36 | 57 | 1005.2 |
| 20260507150535 | 13 | 191 | 8.0 | 19.3 | 0.00 | 1.75 | 0.36 | 59 | 1005.3 |
| 20260507150047 | 14 | 248 | 4.8 | 19.3 | 0.00 | 1.75 | 0.36 | 66 | 1005.3 |
| 20260507145535 | 13 | 277 | 8.0 | 19.3 | 0.00 | 1.75 | 0.36 | 62 | 1005.5 |
| 20260507145033 | 13 | 311 | 6.4 | 20.9 | 0.00 | 1.75 | 0.36 | 63 | 1005.5 |
| 20260507144547 | 13 | 239 | 9.7 | 20.9 | 0.00 | 1.75 | 0.36 | 63 | 1005.5 |
| 20260507144034 | 13 | 125 | 9.7 | 17.7 | 0.00 | 1.75 | 0.36 | 65 | 1005.6 |
| 20260507143534 | 12 | 187 | 9.7 | 19.3 | 0.00 | 1.75 | 0.36 | 68 | 1005.6 |
| 20260507143050 | 12 | 207 | 11.3 | 19.3 | 0.00 | 1.75 | 0.36 | 66 | 1005.8 |
| 20260507142534 | 12 | 177 | 8.0 | 20.9 | 0.00 | 1.75 | 0.36 | 66 | 1005.7 |
| 20260507142034 | 12 | 207 | 9.7 | 20.9 | 0.00 | 1.75 | 0.36 | 67 | 1005.7 |
| 20260507141611 | 12 | 230 | 9.7 | 20.9 | 0.00 | 1.75 | 0.36 | 66 | 1005.7 |
| 20260507141037 | 12 | 325 | 8.0 | 14.5 | 0.00 | 1.75 | 0.36 | 67 | 1005.8 |
| 20260507140534 | 12 | 204 | 6.4 | 14.5 | 0.00 | 1.75 | 0.36 | 69 | 1005.9 |
| 20260507140048 | 13 | 216 | 4.8 | 14.5 | 0.00 | 1.75 | 0.36 | 67 | 1005.8 |
| 20260507135535 | 12 | 238 | 6.4 | 16.1 | 0.00 | 1.75 | 0.36 | 68 | 1005.9 |
| 20260507135034 | 12 | 329 | 4.8 | 17.7 | 0.00 | 1.75 | 0.36 | 68 | 1005.8 |
| 20260507134544 | 12 | 258 | 6.4 | 17.7 | 0.00 | 1.75 | 0.36 | 68 | 1005.9 |
| 20260507134034 | 12 | 245 | 6.4 | 16.1 | 0.00 | 1.75 | 0.36 | 66 | 1005.7 |
| 20260507133535 | 12 | 326 | 6.4 | 17.7 | 0.00 | 1.75 | 0.36 | 66 | 1005.7 |
| 20260507133043 | 12 | 331 | 8.0 | 17.7 | 0.00 | 1.75 | 0.36 | 69 | 1005.7 |
| 20260507132535 | 11 | 303 | 8.0 | 17.7 | 0.00 | 1.75 | 0.36 | 69 | 1005.8 |
| 20260507132033 | 11 | 323 | 9.7 | 16.1 | 0.00 | 1.75 | 0.36 | 69 | 1005.8 |
| 20260507131544 | 11 | 243 | 9.7 | 16.1 | 0.00 | 1.75 | 0.36 | 67 | 1005.7 |
| 20260507131033 | 11 | 273 | 8.0 | 24.1 | 0.00 | 1.75 | 0.36 | 70 | 1005.7 |
| 20260507130535 | 11 | 286 | 9.7 | 24.1 | 0.00 | 1.75 | 0.36 | 70 | 1005.8 |
| 20260507130053 | 11 | 261 | 12.9 | 24.1 | 0.00 | 1.75 | 0.36 | 69 | 1005.9 |
| 20260507125535 | 11 | 333 | 9.7 | 16.1 | 0.00 | 1.75 | 0.36 | 70 | 1006.1 |
| 20260507125033 | 11 | 257 | 6.4 | 19.3 | 0.00 | 1.75 | 0.36 | 73 | 1006.1 |
| 20260507124543 | 10 | 324 | 3.2 | 19.3 | 0.00 | 1.75 | 0.36 | 75 | 1006.2 |
| 20260507124031 | 10 | 295 | 9.7 | 19.3 | 0.00 | 1.75 | 0.36 | 73 | 1006.2 |
| 20260507123534 | 10 | 302 | 11.3 | 17.7 | 0.00 | 1.75 | 0.36 | 74 | 1006.1 |
| 20260507123053 | 10 | 278 | 4.8 | 14.5 | 0.00 | 1.75 | 0.36 | 76 | 1006.0 |
| 20260507122534 | 10 | 286 | 4.8 | 14.5 | 0.00 | 1.75 | 0.36 | 76 | 1006.1 |
| 20260507122033 | 10 | 259 | 6.4 | 14.5 | 0.00 | 1.75 | 0.36 | 75 | 1006.1 |
| 20260507121550 | 10 | 360 | 4.8 | 14.5 | 0.00 | 1.75 | 0.36 | 79 | 1006.0 |
| 20260507121034 | 10 | 303 | 3.2 | 12.9 | 0.00 | 1.75 | 0.36 | 79 | 1005.9 |
| 20260507120535 | 9 | 5 | 6.4 | 16.1 | 0.00 | 1.75 | 0.36 | 80 | 1006.0 |
| 20260507120048 | 9 | 282 | 8.0 | 16.1 | 0.00 | 1.75 | 0.36 | 79 | 1006.1 |
| 20260507115533 | 8 | 271 | 8.0 | 14.5 | 0.00 | 1.75 | 0.36 | 81 | 1006.1 |
| 20260507115033 | 8 | 268 | 9.7 | 14.5 | 0.00 | 1.75 | 0.36 | 82 | 1006.1 |
| 20260507114546 | 8 | 294 | 6.4 | 12.9 | 0.00 | 1.75 | 0.36 | 84 | 1006.3 |
| 20260507114033 | 8 | 255 | 4.8 | 12.9 | 0.00 | 1.75 | 0.36 | 86 | 1006.2 |
| 20260507113535 | 8 | 302 | 6.4 | 12.9 | 0.00 | 1.75 | 0.36 | 86 | 1006.3 |
| 20260507113049 | 7 | 265 | 6.4 | 12.9 | 0.00 | 1.75 | 0.36 | 86 | 1006.3 |
| 20260507112533 | 7 | 281 | 3.2 | 12.9 | 0.00 | 1.75 | 0.36 | 89 | 1006.4 |
| 20260507112036 | 7 | 290 | 1.6 | 8.0 | 0.00 | 1.75 | 0.36 | 89 | 1006.2 |
| 20260507111547 | 7 | 273 | 1.6 | 9.7 | 0.00 | 1.75 | 0.36 | 89 | 1006.2 |
| 20260507111036 | 7 | 231 | 4.8 | 9.7 | 0.00 | 1.75 | 0.36 | 89 | 1006.6 |
| 20260507110535 | 7 | 238 | 4.8 | 8.0 | 0.00 | 1.75 | 0.36 | 89 | 1006.6 |
| 20260507110045 | 7 | 261 | 1.6 | 9.7 | 0.00 | 1.75 | 0.36 | 90 | 1006.3 |
| 20260507105532 | 7 | 261 | 4.8 | 9.7 | 0.00 | 1.75 | 0.36 | 90 | 1006.2 |
| 20260507105033 | 7 | 215 | 4.8 | 9.7 | 0.00 | 1.75 | 0.36 | 91 | 1006.2 |
| 20260507104543 | 7 | 217 | 3.2 | 6.4 | 0.00 | 1.75 | 0.36 | 91 | 1006.6 |
| 20260507104033 | 7 | 298 | 1.6 | 6.4 | 0.00 | 1.75 | 0.36 | 91 | 1005.9 |
| 20260507103534 | 7 | 242 | 1.6 | 6.4 | 0.00 | 1.75 | 0.36 | 91 | 1006.1 |
| 20260507103047 | 7 | 242 | 3.2 | 9.7 | 0.00 | 1.75 | 0.36 | 91 | 1006.2 |
| 20260507102534 | 7 | 0 | 1.6 | 9.7 | 0.00 | 1.75 | 0.36 | 91 | 1006.2 |
| 20260507102035 | 7 | 242 | 4.8 | 9.7 | 0.00 | 1.75 | 0.36 | 91 | 1006.4 |
| 20260507101544 | 7 | 259 | 3.2 | 6.4 | 0.00 | 1.75 | 0.36 | 92 | 1006.3 |
| 20260507101036 | 7 | 236 | 3.2 | 6.4 | 0.00 | 1.75 | 0.36 | 92 | 1006.0 |
| 20260507100536 | 7 | 224 | 3.2 | 6.4 | 0.00 | 1.75 | 0.36 | 92 | 1005.8 |
| 20260507100048 | 7 | 225 | 1.6 | 4.8 | 0.00 | 1.75 | 0.36 | 92 | 1005.7 |
| 20260507095531 | 7 | 271 | 3.2 | 4.8 | 0.00 | 1.75 | 0.36 | 92 | 1005.8 |
| 20260507095034 | 7 | 271 | 0.0 | 4.8 | 0.00 | 1.75 | 0.36 | 92 | 1005.4 |
| 20260507094549 | 7 | 0 | 0.0 | 6.4 | 0.00 | 1.75 | 0.36 | 92 | 1005.5 |
| 20260507094033 | 7 | 271 | 1.6 | 6.4 | 0.00 | 1.75 | 0.36 | 92 | 1005.8 |
| 20260507093533 | 7 | 271 | 0.0 | 4.8 | 0.00 | 1.75 | 0.36 | 92 | 1005.6 |
| 20260507093050 | 7 | 271 | 1.6 | 9.7 | 0.00 | 1.75 | 0.36 | 92 | 1005.8 |
| 20260507092535 | 7 | 271 | 3.2 | 9.7 | 0.00 | 1.75 | 0.36 | 92 | 1005.8 |
| 20260507092035 | 7 | 271 | 3.2 | 9.7 | 0.00 | 1.75 | 0.36 | 92 | 1005.8 |
| 20260507091547 | 7 | 271 | 3.2 | 6.4 | 0.00 | 1.75 | 0.36 | 92 | 1005.9 |
| 20260507091033 | 7 | 271 | 1.6 | 6.4 | 0.00 | 1.75 | 0.36 | 92 | 1005.8 |
| 20260507090532 | 7 | 271 | 1.6 | 6.4 | 0.00 | 1.75 | 0.36 | 92 | 1005.9 |
| 20260507090046 | 7 | 271 | 3.2 | 6.4 | 0.00 | 1.75 | 0.36 | 92 | 1006.0 |
| 20260507085533 | 7 | 271 | 3.2 | 6.4 | 0.00 | 1.75 | 0.36 | 92 | 1005.8 |
| 20260507085033 | 7 | 271 | 3.2 | 9.7 | 0.00 | 1.75 | 0.36 | 92 | 1005.9 |
| 20260507084543 | 7 | 271 | 3.2 | 9.7 | 0.00 | 1.75 | 0.36 | 92 | 1006.1 |
| 20260507084034 | 7 | 277 | 4.8 | 9.7 | 0.00 | 1.75 | 0.36 | 93 | 1005.7 |
| 20260507083533 | 7 | 259 | 4.8 | 11.3 | 0.00 | 1.75 | 0.36 | 92 | 1005.8 |
| 20260507083042 | 7 | 284 | 3.2 | 11.3 | 0.00 | 1.75 | 0.36 | 93 | 1005.3 |
| 20260507082534 | 7 | 259 | 1.6 | 6.4 | 0.00 | 1.75 | 0.36 | 93 | 1005.5 |
| 20260507082033 | 8 | 259 | 3.2 | 8.0 | 0.00 | 1.75 | 0.36 | 93 | 1005.3 |
| 20260507081547 | 8 | 259 | 3.2 | 9.7 | 0.00 | 1.75 | 0.36 | 93 | 1005.3 |
| 20260507081035 | 8 | 278 | 3.2 | 9.7 | 0.00 | 1.75 | 0.36 | 93 | 1005.4 |
| 20260507080539 | 8 | 278 | 3.2 | 9.7 | 0.00 | 1.75 | 0.36 | 94 | 1005.3 |
| 20260507080051 | 8 | 302 | 3.2 | 6.4 | 0.00 | 1.75 | 0.36 | 94 | 1005.5 |
| 20260507075533 | 8 | 302 | 0.0 | 8.0 | 0.00 | 1.75 | 0.36 | 94 | 1005.2 |
| 20260507075033 | 8 | 301 | 1.6 | 8.0 | 0.00 | 1.75 | 0.36 | 94 | 1005.3 |
| 20260507074546 | 8 | 301 | 4.8 | 14.5 | 0.00 | 1.75 | 0.36 | 94 | 1005.5 |
| 20260507074031 | 8 | 271 | 6.4 | 14.5 | 0.00 | 1.75 | 0.36 | 94 | 1005.5 |
| 20260507073533 | 8 | 315 | 3.2 | 11.3 | 0.00 | 1.75 | 0.36 | 94 | 1005.4 |
| 20260507073104 | 8 | 281 | 3.2 | 11.3 | 0.00 | 1.75 | 0.36 | 94 | 1005.7 |
| 20260507072533 | 8 | 281 | 4.8 | 11.3 | 0.00 | 1.75 | 0.36 | 94 | 1005.5 |
| 20260507072035 | 8 | 327 | 1.6 | 4.8 | 0.00 | 1.75 | 0.36 | 94 | 1005.1 |
| 20260507071544 | 9 | 327 | 1.6 | 3.2 | 0.00 | 1.75 | 0.36 | 94 | 1005.2 |
| 20260507071034 | 9 | 327 | 0.0 | 4.8 | 0.00 | 1.75 | 0.36 | 94 | 1005.2 |
| 20260507070535 | 9 | 327 | 1.6 | 4.8 | 0.00 | 1.75 | 0.36 | 94 | 1005.2 |
| 20260507070045 | 9 | 327 | 1.6 | 4.8 | 0.00 | 1.75 | 0.36 | 94 | 1005.3 |
| 20260507065536 | 9 | 327 | 0.0 | 6.4 | 0.00 | 1.75 | 0.36 | 94 | 1005.0 |
| 20260507065035 | 9 | 327 | 3.2 | 6.4 | 0.00 | 1.75 | 0.36 | 94 | 1005.0 |
| 20260507064559 | 9 | 327 | 3.2 | 6.4 | 0.00 | 1.75 | 0.36 | 94 | 1004.9 |
| 20260507064035 | 9 | 0 | 0.0 | 4.8 | 0.00 | 1.75 | 0.36 | 94 | 1004.7 |
| 20260507063531 | 9 | 0 | 1.6 | 8.0 | 0.00 | 1.75 | 0.36 | 94 | 1004.8 |
| 20260507063057 | 9 | 327 | 1.6 | 8.0 | 0.00 | 1.75 | 0.36 | 94 | 1004.8 |
| 20260507062533 | 9 | 300 | 4.8 | 8.0 | 0.03 | 1.75 | 0.36 | 94 | 1004.7 |
| 20260507062034 | 9 | 300 | 3.2 | 8.0 | 0.03 | 1.75 | 0.36 | 94 | 1004.6 |
| 20260507061547 | 9 | 300 | 3.2 | 6.4 | 0.03 | 1.75 | 0.36 | 94 | 1004.7 |
| 20260507061034 | 10 | 300 | 1.6 | 6.4 | 0.03 | 1.75 | 0.36 | 94 | 1004.6 |
| 20260507060535 | 10 | 300 | 3.2 | 6.4 | 0.05 | 1.75 | 0.36 | 94 | 1004.5 |
| 20260507060044 | 10 | 355 | 0.0 | 4.8 | 0.08 | 1.75 | 0.36 | 94 | 1004.7 |
| 20260507055533 | 10 | 355 | 1.6 | 8.0 | 0.13 | 1.75 | 0.36 | 94 | 1004.5 |
| 20260507055034 | 10 | 0 | 1.6 | 12.9 | 0.15 | 1.75 | 0.36 | 94 | 1004.3 |
| 20260507054542 | 10 | 348 | 3.2 | 12.9 | 0.15 | 1.75 | 0.36 | 94 | 1004.3 |
| 20260507054035 | 10 | 333 | 4.8 | 11.3 | 0.20 | 1.75 | 0.36 | 94 | 1004.3 |
| 20260507053534 | 10 | 332 | 3.2 | 9.7 | 0.25 | 1.75 | 0.36 | 95 | 1004.5 |
| 20260507053042 | 10 | 0 | 1.6 | 9.7 | 0.28 | 1.75 | 0.36 | 95 | 1004.6 |
| 20260507052532 | 10 | 317 | 3.2 | 11.3 | 0.28 | 1.73 | 0.33 | 95 | 1004.9 |
| 20260507052034 | 10 | 313 | 3.2 | 12.9 | 0.28 | 1.73 | 0.33 | 95 | 1004.7 |
| 20260507051549 | 10 | 333 | 6.4 | 12.9 | 0.28 | 1.73 | 0.33 | 95 | 1004.8 |
| 20260507051037 | 10 | 264 | 6.4 | 14.5 | 0.30 | 1.73 | 0.33 | 95 | 1004.7 |
| 20260507050533 | 10 | 22 | 3.2 | 14.5 | 0.28 | 1.70 | 0.30 | 95 | 1004.7 |